Total_Precipitation_Accumulation
0.11 0.10 0.11 0.12 0.11 0.10 0.14 0.16 0.15 0.14 0.15 0.16 0.20 0.20 0.17 0.15 0.19 0.20 0.17 0.15 0.16 0.16 0.12 0.15 0.24 0.32 0.52 0.38 0.10 0.04 0.03 0.06 0.16 0.34 0.05 0.03 0.00 0.00 0.00 0.00 0.00 0.00 0.00 0.00 0.00 0.00 0.00
0.09 0.08 0.07 0.09 0.10 0.12 0.18 0.18 0.17 0.17 0.17 0.20 0.20 0.21 0.19 0.16 0.22 0.17 0.14 0.14 0.14 0.15 0.18 0.16 0.33 0.54 0.40 0.22 0.03 0.04 0.07 0.09 0.10 0.25 0.10 0.04 0.01 0.00 0.00 0.00 0.01 0.00 0.00 0.00 0.00 0.00 0.00
0.07 0.06 0.08 0.10 0.12 0.16 0.20 0.21 0.21 0.20 0.23 0.22 0.27 0.23 0.16 0.16 0.24 0.24 0.18 0.15 0.13 0.15 0.16 0.23 0.37 0.53 0.28 0.09 0.01 0.08 0.06 0.28 0.14 0.22 0.16 0.08 0.03 0.04 0.04 0.01 0.00 0.01 0.04 0.01 0.00 0.00 0.00
0.06 0.08 0.09 0.09 0.13 0.18 0.19 0.20 0.18 0.21 0.25 0.26 0.31 0.27 0.22 0.21 0.20 0.24 0.16 0.18 0.19 0.19 0.25 0.31 0.51 0.59 0.24 0.03 0.01 0.05 0.05 0.29 0.27 0.36 0.31 0.23 0.05 0.05 0.04 0.02 0.00 0.02 0.03 0.01 0.00 0.00 0.00
0.08 0.09 0.09 0.09 0.14 0.17 0.18 0.18 0.19 0.19 0.21 0.29 0.31 0.24 0.21 0.22 0.24 0.28 0.24 0.30 0.25 0.29 0.42 0.52 0.57 0.42 0.17 0.08 0.03 0.01 0.05 0.25 0.27 0.45 0.68 0.35 0.18 0.05 0.02 0.04 0.02 0.02 0.01 0.01 0.00 0.00 0.00
0.07 0.07 0.07 0.10 0.15 0.19 0.19 0.20 0.21 0.20 0.23 0.30 0.30 0.25 0.24 0.26 0.37 0.49 0.49 0.45 0.47 0.38 0.67 0.95 0.70 0.53 0.10 0.02 0.05 0.01 0.03 0.27 0.36 0.40 0.64 0.45 0.31 0.12 0.02 0.03 0.02 0.01 0.02 0.01 0.00 0.00 0.01
0.05 0.06 0.08 0.13 0.18 0.23 0.25 0.24 0.23 0.23 0.29 0.35 0.32 0.27 0.32 0.42 0.50 0.76 0.78 0.87 0.88 0.82 0.76 0.77 0.49 0.21 0.02 0.02 0.08 0.05 0.05 0.21 0.52 0.54 0.56 0.29 0.29 0.17 0.06 0.00 0.00 0.00 0.00 0.01 0.00 0.01 0.04
0.04 0.05 0.09 0.16 0.26 0.25 0.24 0.23 0.23 0.25 0.31 0.35 0.34 0.39 0.45 0.39 0.53 0.99 0.98 0.88 0.50 0.57 0.55 0.39 0.28 0.15 0.03 0.03 0.11 0.08 0.06 0.22 0.51 0.49 0.60 0.24 0.22 0.10 0.07 0.02 0.00 0.00 0.01 0.01 0.01 0.01 0.07
0.04 0.05 0.13 0.24 0.28 0.25 0.25 0.27 0.29 0.36 0.44 0.42 0.42 0.42 0.47 0.49 0.73 1.04 0.72 0.48 0.34 0.57 0.62 0.48 0.56 0.27 0.06 0.07 0.10 0.04 0.05 0.22 0.48 0.49 0.40 0.27 0.13 0.07 0.11 0.07 0.02 0.00 0.00 0.00 0.01 0.04 0.06
0.04 0.06 0.12 0.15 0.25 0.29 0.32 0.35 0.46 0.57 0.56 0.63 0.51 0.51 0.57 0.88 1.49 0.92 0.58 0.32 0.65 0.81 0.63 0.72 0.80 0.44 0.10 0.10 0.13 0.02 0.06 0.10 0.26 0.33 0.37 0.39 0.10 0.14 0.10 0.11 0.02 0.00 0.00 0.00 0.01 0.06 0.03
0.04 0.08 0.12 0.16 0.16 0.23 0.31 0.38 0.51 0.64 0.66 0.58 0.64 0.64 0.77 1.28 1.45 0.79 0.51 0.46 1.03 1.13 0.77 0.62 0.73 0.41 0.12 0.10 0.09 0.08 0.07 0.09 0.09 0.07 0.15 0.19 0.09 0.16 0.15 0.10 0.05 0.01 0.00 0.00 0.04 0.29 0.26
0.05 0.11 0.16 0.18 0.22 0.29 0.30 0.32 0.42 0.44 0.50 0.67 0.87 0.94 1.21 1.04 0.94 0.59 0.57 0.83 1.40 1.34 1.01 0.98 0.74 0.34 0.10 0.08 0.05 0.11 0.08 0.11 0.12 0.24 0.22 0.05 0.10 0.11 0.09 0.11 0.05 0.02 0.03 0.03 0.16 0.29 0.57
0.07 0.14 0.18 0.21 0.24 0.29 0.39 0.41 0.37 0.42 0.60 0.82 0.97 1.15 1.20 1.05 0.81 0.67 1.00 1.28 1.33 0.99 0.78 0.67 0.52 0.12 0.04 0.07 0.09 0.15 0.18 0.19 0.33 0.38 0.41 0.21 0.14 0.07 0.11 0.12 0.08 0.05 0.12 0.24 0.34 0.62 0.36
0.08 0.16 0.21 0.24 0.29 0.42 0.48 0.46 0.55 0.65 0.69 0.67 1.12 1.05 1.07 0.88 0.77 1.16 1.41 1.07 0.71 0.61 0.55 0.37 0.09 0.05 0.05 0.05 0.10 0.10 0.26 0.16 0.11 0.22 0.29 0.17 0.09 0.02 0.02 0.02 0.04 0.03 0.06 0.22 0.17 0.18 0.15
0.10 0.17 0.25 0.27 0.37 0.40 0.40 0.42 0.38 0.52 0.72 0.97 1.26 1.31 1.31 1.13 1.00 1.20 1.31 0.83 0.93 0.62 0.40 0.16 0.10 0.13 0.10 0.04 0.10 0.12 0.15 0.11 0.02 0.03 0.13 0.12 0.07 0.03 0.00 0.00 0.10 0.19 0.22 0.14 0.43 0.17 0.26
0.12 0.19 0.25 0.23 0.25 0.37 0.39 0.38 0.47 0.78 1.01 1.09 1.37 1.75 1.26 0.92 1.08 1.35 0.98 0.72 0.61 0.15 0.02 0.03 0.14 0.08 0.02 0.02 0.05 0.05 0.05 0.00 0.00 0.00 0.01 0.03 0.17 0.10 0.07 0.09 0.09 0.17 0.10 0.36 1.00 0.62 0.17
0.13 0.20 0.20 0.24 0.29 0.44 0.52 0.52 0.65 0.88 1.01 1.75 1.25 1.87 1.23 0.91 1.41 1.43 0.99 0.79 0.30 0.03 0.02 0.06 0.05 0.04 0.00 0.01 0.00 0.00 0.00 0.00 0.00 0.00 0.01 0.01 0.09 0.12 0.29 0.14 0.07 0.23 0.31 0.29 0.49 0.45 0.32
0.13 0.17 0.18 0.26 0.35 0.46 0.68 0.63 0.69 1.05 1.41 2.20 1.95 1.46 1.14 1.12 1.67 1.06 0.61 0.61 0.29 0.05 0.04 0.10 0.10 0.04 0.00 0.00 0.00 0.00 0.00 0.00 0.00 0.00 0.01 0.01 0.17 0.22 0.16 0.06 0.06 0.11 0.17 0.16 0.49 0.45 0.32
0.13 0.14 0.16 0.23 0.37 0.45 0.62 0.54 0.54 1.01 1.66 1.95 1.80 1.43 1.52 0.78 0.63 0.48 0.54 0.27 0.16 0.08 0.08 0.12 0.08 0.04 0.01 0.00 0.00 0.00 0.00 0.00 0.00 0.00 0.00 0.05 0.29 0.36 0.29 0.31 0.33 0.28 0.22 0.33 0.37 0.76 0.66
0.11 0.12 0.13 0.17 0.31 0.36 0.45 0.36 0.46 1.03 1.40 1.83 1.56 1.88 2.17 1.45 0.32 0.18 0.22 0.12 0.06 0.05 0.05 0.11 0.13 0.08 0.04 0.02 0.00 0.00 0.00 0.00 0.00 0.00 0.01 0.20 0.40 0.59 0.58 0.51 0.71 0.51 0.27 0.48 0.90 1.11 0.36
0.11 0.10 0.13 0.16 0.19 0.23 0.27 0.31 0.72 1.28 1.44 1.47 1.15 0.78 0.57 0.74 0.30 0.09 0.15 0.10 0.04 0.08 0.09 0.14 0.11 0.09 0.05 0.03 0.01 0.00 0.00 0.00 0.00 0.02 0.13 0.45 0.81 0.91 0.42 0.32 0.62 0.60 0.30 0.42 0.95 0.53 0.44
0.10 0.09 0.12 0.13 0.10 0.14 0.18 0.24 0.61 1.39 1.67 1.16 0.90 0.42 0.06 0.04 0.03 0.01 0.03 0.05 0.04 0.09 0.14 0.13 0.07 0.04 0.05 0.04 0.01 0.00 0.00 0.00 0.00 0.02 0.11 0.33 0.74 0.74 0.46 0.33 0.34 0.33 0.13 0.24 0.54 0.38 0.25
0.09 0.09 0.12 0.11 0.07 0.11 0.11 0.27 0.58 1.40 1.82 1.28 0.74 0.39 0.07 0.04 0.03 0.02 0.01 0.00 0.01 0.09 0.07 0.04 0.05 0.08 0.06 0.04 0.03 0.02 0.01 0.02 0.01 0.02 0.11 0.33 0.50 0.79 0.66 0.40 0.38 0.32 0.08 0.17 0.38 0.32 0.16
0.10 0.10 0.12 0.09 0.06 0.08 0.09 0.32 0.62 1.16 1.51 1.27 0.73 0.46 0.18 0.09 0.03 0.01 0.01 0.01 0.01 0.06 0.08 0.06 0.03 0.07 0.05 0.04 0.05 0.06 0.02 0.02 0.02 0.01 0.03 0.16 0.37 0.73 0.93 0.76 0.75 0.44 0.13 0.16 0.17 0.16 0.10
0.10 0.12 0.10 0.07 0.06 0.06 0.08 0.32 0.48 0.62 0.68 0.76 0.57 0.41 0.19 0.08 0.03 0.03 0.03 0.02 0.03 0.05 0.08 0.10 0.05 0.02 0.05 0.09 0.17 0.20 0.20 0.06 0.00 0.01 0.01 0.04 0.19 0.38 0.43 0.35 0.17 0.11 0.13 0.11 0.08 0.10 0.03
0.09 0.11 0.08 0.05 0.05 0.06 0.07 0.21 0.34 0.46 0.51 0.65 0.67 0.63 0.21 0.08 0.04 0.02 0.03 0.02 0.07 0.13 0.12 0.11 0.09 0.06 0.13 0.22 0.34 0.23 0.10 0.03 0.01 0.01 0.00 0.01 0.05 0.23 0.17 0.18 0.08 0.03 0.02 0.02 0.03 0.01 0.00
0.10 0.09 0.06 0.05 0.05 0.07 0.05 0.11 0.33 0.32 0.39 0.53 0.63 0.50 0.19 0.07 0.01 0.01 0.02 0.01 0.04 0.13 0.19 0.20 0.16 0.19 0.20 0.33 0.33 0.14 0.02 0.00 0.00 0.01 0.01 0.04 0.07 0.11 0.11 0.12 0.01 0.00 0.00 0.01 0.03 0.02 0.00
0.10 0.07 0.05 0.04 0.04 0.06 0.08 0.11 0.30 0.25 0.34 0.44 0.40 0.41 0.24 0.06 0.01 0.01 0.00 0.01 0.06 0.12 0.22 0.24 0.29 0.30 0.27 0.34 0.29 0.13 0.02 0.01 0.00 0.00 0.00 0.02 0.02 0.04 0.04 0.04 0.00 0.00 0.00 0.02 0.01 0.00 0.00
0.09 0.06 0.05 0.04 0.04 0.06 0.07 0.12 0.31 0.24 0.27 0.38 0.31 0.31 0.22 0.08 0.02 0.00 0.00 0.00 0.03 0.09 0.22 0.24 0.29 0.21 0.25 0.22 0.14 0.10 0.04 0.01 0.00 0.01 0.00 0.00 0.00 0.00 0.00 0.00 0.00 0.00 0.00 0.00 0.00 0.00 0.00